FENGYUN 1C DEB

Satellite information

Favourite Embed

Satellite Type and Status

DEBRISIN ORBIT

Key statistics

Satellite FENGYUN 1C DEB at a glance.

Uptime

9555

Days in orbit

Revolutions

≈ 14.0

Per day

Orbit

SSO

Sun Synchronous Orbit

Inclination

99.7

Latest

Satellite identification and parameters

Extended collection of information and parameters for FENGYUN 1C DEB.

Object identification

Identified? True

Debris? True

Object name: FENGYUN 1C DEB

International designator: 1999-025BNS

Object number (NORAD): 31284

Object ID (CCSDS): 31284

Country: PEOPLES REPUBLIC OF CHINA (PRC)

Current information (Y/N): Y

RCS size: SMALL

Orbital parameters

Period: 103.043 minutes

Inclination: 99.7248 deg

SMA: 7280.694 km

Apoapsis: 1008.609 km

Periapsis: 796.508 km

RAAN: 272.0897 deg

Eccentricy: 0.014566

Argument of periapsis: 128.0207 deg

Mean anomaly: 233.4206 deg

Mean motion: 13.97473661 rev/day

Mean motion (dot): 0.00000946 rev/day2

B* drag term: 0.00064601 1/REarth

Two-line elements (TLE)

Creation date: July 6, 2025, 6:05 p.m.

Reference frame: TEME

Reference center: EARTH

Epoch: July 6, 2025, 12:17 a.m. UTC

TLE line 0: 0 FENGYUN 1C DEB

TLE line 1: 1 31284U 99025BNS 25187.01197984 .00000946 00000-0 64601-3 0 9994

TLE line 2: 2 31284 99.7248 272.0897 0145660 128.0207 233.4206 13.97473661929317

Live tracking on map

Real-time ground track for satellite FENGYUN 1C DEB.

In-orbit conjunctions

A list of the most updated potential collisions computed for object FENGYUN 1C DEB.

Target Orbit TCA Probability of collision Miss distance Type
COSMOS 397 DEB LEO 2025-03-10 09:25:23 0.0001031315 154.0 (m) DEBRIS
IRS 1B SSO 2025-01-27 12:39:31 0.003594311 95.0 (m) PAYLOAD

Associated space launch

Chinese polar orbiting meteorological satellite

FENGYUN 1C DEB was lifted into orbit during the mission ‘Long March 4B | Feng Yun 1C’, on board a Long March 4B space rocket.

The launch took place on May 10, 1999, 1:33 a.m. from Launch Complex 7.

For more information about the launch, click the button.

Launch to space Long March 4B | Feng Yun 1C
Long March 4B | Feng Yun 1C

Agency: N/A

Status: Launch Successful

Launch date: May 10, 1999, 1:33 a.m. UTC

Rocket: Long March 4B

Launch pad: Launch Complex 7

Location: Taiyuan Satellite Launch Center, People's Republic of China

...

Latest news about this satellite

There are no fresh news available about this satellite. Check back as we update our databases every day.


Newsletter sign-up

Weekly statistics, charts and insights to help you stay on top of the space industry.